Miscellaneous Local Product
Issued by NWS North Platte, NE

Home | Current Version | Previous Version | Graphics & Text | Print | Product List | Glossary On
Versions: 1 2 3 4 5 6 7 8 9 10 11 12 13 14 15 16 17 18 19 20 21 22 23 24 25 26 27 28 29 30 31 32 33 34 35 36 37 38 39 40 41 42 43 44 45 46 47 48 49 50
320
AXUS43 KLBF 230610
MISLBF


WESTERN AND NORTH CENTRAL NEBRASKA HOURLY WEATHER ROUNDUP
NATIONAL WEATHER SERVICE NORTH PLATTE NE
1200 AM CST FRI FEB 23 2018

NOTE: "FAIR" INDICATES FEW OR NO CLOUDS BELOW 12,000 FEET WITH NO
SIGNIFICANT WEATHER AND/OR OBSTRUCTIONS TO VISIBILITY.

NOTE: STATIONS NOT REPORTING VARIABLES SUCH AS SKY/WEATHER OR
PRESSURE ARE PROVIDED BY RAWS AND APRS NETWORKS AND ARE NOT UNDER
NATIONAL WEATHER SERVICE QUALITY CONTROL.

...OBSERVATIONS IN AND NEAR THE EASTERN PANHANDLE OF NEBRASKA...

CITY           SKY/WX    TMP DP  RH WIND       PRES   REMARKS
PINE RIDGE     FOG        9   8  96 VRB3      30.10S VSB 1/2
GORDON         FOG       12   9  87 CALM      30.06S VSB 1/2
CHADRON        PTCLDY    -3  -7  82 W6        30.12R WCI -15
ALLIANCE       CLEAR     -1  -3  91 W8        30.05S WCI -15
SIDNEY         CLOUDY    19  14  81 W8        30.06R WCI   9
CRESCENT LAKE    N/A     12  10  93 W5          N/A  WCI   4
$$

...OBSERVATIONS IN NORTHERN NEBRASKA AND FAR SOUTHERN SOUTH DAKOTA...

CITY           SKY/WX    TMP DP  RH WIND       PRES   REMARKS
WINNER         FAIR      16  13  88 W8        30.12R WCI   5
VALENTINE      PTCLDY    13   9  84 NW8       30.09S WCI   2
AINSWORTH      CLEAR     15  13  95 W9        30.09S WCI   3
O`NEILL        CLEAR     17  17  98 W7        30.12F WCI   7
THEDFORD         N/A     13  11  91 W3        30.10S
BROKEN BOW     CLEAR     14  12  92 CALM      30.11F
ORD            MOCLDY    20  18  92 W5        30.12F WCI  13
ALBION         CLOUDY    23  21  92 CALM      30.14R
VALENTINE NWR    N/A     16  12  85 W5          N/A  WCI   9
HALSEY           N/A     15  13  90 CALM        N/A
BUTTE            N/A     19  17  93 SW3         N/A
CHAMBERS         N/A     19  15  83 W3          N/A
EWING            N/A     22  20  92 W7          N/A  WCI  14
$$

...OBSERVATIONS IN SOUTHWEST NEBRASKA AND FAR NORTHEAST COLORADO...

CITY           SKY/WX    TMP DP  RH WIND       PRES   REMARKS
WRAY           FAIR      21  19  93 MISG      30.10S
HOLYOKE        FAIR      25  21  86 SW3       30.09R
IMPERIAL       CLOUDY    19  18  95 SW7       30.11R WCI  10
OGALLALA       CLOUDY    15  14  92 SW5       30.11R WCI   8
NORTH PLATTE   HAZE      11   6  81 CALM      30.12R VSB 1/4
MCCOOK         CLOUDY    19  18  95 W6        30.15R WCI  11
LEXINGTON      CLEAR     15  12  89 W7        30.14R WCI   5
STAPLETON        N/A      9   7  91 CALM        N/A
$$

...OBSERVATIONS IN CENTRAL LINCOLN COUNTY AREA...

CITY           SKY/WX    TMP DP  RH WIND       PRES   REMARKS
N.P. AIRPORT   HAZE      11   6  81 CALM      30.12R VSB 1/4
N.P. DOWNTOWN    N/A     13  11  92 CALM        N/A
N.P. SOUTHEAST   N/A     14  11  88 CALM        N/A
N.P. HILLCREST   N/A     18  16  93 CALM        N/A
$$

...OBSERVATIONS ACROSS THE ROCKIES AND WESTERN HIGH PLAINS...

CITY           SKY/WX    TMP DP  RH WIND       PRES   REMARKS
RAPID CITY     PTCLDY     5  -2  72 NW10      30.11R WCI -10
SCOTTSBLUFF    CLEAR      5   3  91 NW7       30.07R WCI  -7
CHEYENNE       CLEAR     12   9  87 SW6       29.99R WCI   3
DENVER         LGT SNOW  22  18  85 SW5       30.04S FOG     WCI  16
BERTHOUD PASS  FAIR       0 -13  55 SW9G23    29.82S WCI -16
COPPER MTN     MOCLDY     9  -2  61 S13       29.84S WCI  -7
MONARCH PASS     N/A      3   0  85 SW26      29.96S WCI -20
ASPEN          CLOUDY    18  12  77 SE3       29.92F
LARAMIE        LGT SNOW  12  10  92 E6        29.93S FOG     WCI   3
CASPER         MOCLDY    -3  -6  87 NW8       30.03S WCI -18
$$

...OBSERVATIONS ACROSS THE NORTHERN PLAINS...

CITY           SKY/WX    TMP DP  RH WIND       PRES   REMARKS
BISMARCK       LGT SNOW  16  10  77 NW8       30.20S WCI   5
FARGO          LGT SNOW  22  20  92 N5        30.20F VSB 1   WCI  16
PIERRE         MOCLDY    10   9  95 NW13      30.15R WCI  -5
SIOUX FALLS    CLOUDY    25  23  92 SW3       30.11F
$$

...OBSERVATIONS ACROSS THE CENTRAL AND SOUTHERN PLAINS...

CITY           SKY/WX    TMP DP  RH WIND       PRES   REMARKS
OMAHA          CLOUDY    31  30  96 W5        30.17S FOG     WCI  26
GRAND ISLAND   CLOUDY    26  24  92 W7        30.15F WCI  18
KANSAS CITY    FRZ DRZL  32  32 100 CALM      30.17F VSB 1
WICHITA        CLOUDY    32  32 100 S5        30.19S WCI  27
DODGE CITY     FOG       30  29  96 E6        30.12S VSB 1/4 WCI  24
OKLAHOMA CITY  CLOUDY    32  32 100 S6        30.21R FOG     WCI  26
DALLAS         CLOUDY    41  38  89 NW5       30.22F
AMARILLO       CLOUDY    33  28  81 S9        30.11S WCI  25
$$




USA.gov is the U.S. government's official web portal to all federal, state and local government web resources and services.